User: anonymous
Location: Austin, TX
(30.3000°N, 97.7500°W)
Time: 17:18:01
(UTC-05:00)
Language:

Cosmos 2082 Rocket - Orbit

View from above orbital plane
View from above orbital plane
View from above satellite
View from above satellite

Ground track
Ground track

The orbit data is extracted from the following two-line orbital elements,

1 20625U 90046B   14109.27521929  .00000404  00000-0  23540-3 0  6954
2 20625 071.0010 052.9102 0012676 056.9129 095.1765 14.14515986234511
Epoch (UTC): 19 April 2014 06:36:18
Eccentricity: 0.0012676
inclination: 71.0010°
perigee height: 835 km
apogee height: 853 km
right ascension of ascending node: 52.9102°
argument of perigee: 56.9129°
revolutions per day: 14.14515986
mean anomaly at epoch: 95.1765°
orbit number at epoch: 23451

The dashed part of the orbit path shows where the satellite is in the earth's shadow,  

DLR